Weather History for Marysville, OH

Change the Weather History Date:

Monday, October 29, 2012

  Actual Average (KDLZ) Record (KDLZ)
Temperature  
Mean Temperature 36 °F -  
Max Temperature 39 °F 58 °F 78 °F (1946)
Min Temperature 34 °F 35 °F 19 °F (1976)
Degree Days  
Heating Degree Days 28    
Moisture  
Dew Point 33 °F    
Average Humidity 87    
Maximum Humidity 92    
Minimum Humidity 78    
Precipitation  
Precipitation 0.00 in - - ()
Sea Level Pressure  
Sea Level Pressure 29.87 in    
Wind  
Wind Speed 18 mph (North)    
Max Wind Speed 26 mph    
Max Gust Speed 37 mph    
Visibility 10 miles    
Events      
Averages and records for this station are not official NWS values.
T = Trace of Precipitation, MM = Missing Value Source: NWS Daily Summary

Daily Weather History Graph

Daily Weather History Graph

Search for Another Location

Airport:

Trip Planner

Search our weather history database for the weather conditions in past years. The results will help you decide how hot, cold, wet, or windy it might be!

Date:

Astronomy

Oct. 29, 2012 Rise Set
Actual Time 7:59 AM EDT 6:33 PM EDT
Civil Twilight 7:31 AM EDT 7:01 PM EDT
Nautical Twilight 6:59 AM EDT 7:33 PM EDT
Astronomical Twilight 6:28 AM EDT 8:05 PM EDT
Moon 6:24 PM EDT (10/29) 7:49 AM EDT (10/29)
Length of Visible Light 11h 29m
Length of Day
10h 33m
Full, 100% of the Moon is Illuminated
Oct 29
Full
Oct 29
Full
Nov 6
Last Quarter
Nov 13
New
Nov 20
First Quarter

Hourly Weather History & Observations

Time (EDT) Temp. Windchill Dew Point Humidity Pressure Visibility Wind Dir Wind Speed Gust Speed Precip Events Conditions
12:14 AM 36.9 °F 27.1 °F 34.0 °F 89% 30.01 in 10.0 mi North 17.3 mph 23.0 mph N/A   Overcast
12:34 AM 36.7 °F 28.4 °F 34.0 °F 90% 30.01 in 10.0 mi North 12.7 mph - N/A   Overcast
12:54 AM 36.7 °F 28.0 °F 34.0 °F 90% 30.01 in 10.0 mi North 13.8 mph 21.9 mph N/A   Overcast
1:14 AM 36.7 °F 27.6 °F 34.0 °F 90% 30.00 in 10.0 mi North 15.0 mph 23.0 mph N/A   Overcast
1:34 AM 36.7 °F 27.2 °F 34.0 °F 90% 30.00 in 10.0 mi North 16.1 mph 23.0 mph N/A   Overcast
1:54 AM 36.9 °F 26.5 °F 34.2 °F 90% 30.00 in 10.0 mi North 19.6 mph 27.6 mph N/A   Overcast
2:14 AM 36.7 °F 28.4 °F 34.0 °F 90% 30.00 in 10.0 mi North 12.7 mph 20.7 mph N/A   Overcast
2:34 AM 36.7 °F 28.0 °F 34.2 °F 91% 29.99 in 10.0 mi North 13.8 mph 24.2 mph N/A   Overcast
2:54 AM 36.5 °F 27.4 °F 33.8 °F 90% 29.99 in 10.0 mi North 15.0 mph 25.3 mph N/A   Overcast
3:14 AM 36.3 °F 27.5 °F 33.8 °F 91% 29.99 in 10.0 mi North 13.8 mph 25.3 mph N/A   Overcast
3:34 AM 36.1 °F 26.5 °F 33.8 °F 91% 29.98 in 10.0 mi North 16.1 mph 20.7 mph N/A   Overcast
3:54 AM 36.1 °F 27.3 °F 33.8 °F 91% 29.97 in 10.0 mi North 13.8 mph 24.2 mph N/A   Overcast
4:14 AM 36.3 °F 26.4 °F 33.8 °F 91% 29.97 in 10.0 mi North 17.3 mph 26.5 mph N/A   Overcast
4:34 AM 36.0 °F 26.3 °F 33.8 °F 92% 29.96 in 10.0 mi North 16.1 mph 21.9 mph N/A   Overcast
4:54 AM 36.1 °F 26.2 °F 33.6 °F 91% 29.95 in 10.0 mi NNW 17.3 mph 23.0 mph N/A   Overcast
5:14 AM 35.8 °F 26.1 °F 33.3 °F 91% 29.95 in 10.0 mi NNW 16.1 mph 21.9 mph N/A   Overcast
5:34 AM 35.6 °F 25.9 °F 32.9 °F 90% 29.95 in 10.0 mi North 16.1 mph 23.0 mph N/A   Overcast
5:54 AM 35.6 °F 24.5 °F 32.9 °F 90% 29.96 in 10.0 mi North 20.7 mph 25.3 mph N/A   Overcast
6:14 AM 35.6 °F 25.2 °F 32.9 °F 90% 29.95 in 10.0 mi North 18.4 mph 25.3 mph N/A   Overcast
6:54 AM 35.6 °F 25.5 °F 32.9 °F 90% 29.95 in 10.0 mi North 17.3 mph 27.6 mph N/A   Overcast
7:14 AM 35.6 °F 24.0 °F 32.9 °F 90% 29.94 in 10.0 mi North 23.0 mph 29.9 mph N/A   Overcast
7:34 AM 36.0 °F 27.1 °F 32.9 °F 89% 29.95 in 10.0 mi North 13.8 mph 24.2 mph N/A   Overcast
7:54 AM 35.8 °F 25.7 °F 32.9 °F 89% 29.94 in 10.0 mi NNW 17.3 mph 26.5 mph N/A   Overcast
8:14 AM 35.6 °F 26.2 °F 32.5 °F 89% 29.95 in 10.0 mi North 15.0 mph 25.3 mph N/A   Overcast
8:34 AM 35.6 °F 25.5 °F 32.9 °F 90% 29.95 in 10.0 mi North 17.3 mph 23.0 mph N/A   Overcast
8:54 AM 35.8 °F 26.1 °F 32.9 °F 89% 29.94 in 10.0 mi North 16.1 mph 24.2 mph N/A   Overcast
9:14 AM 36.1 °F 25.2 °F 32.5 °F 87% 29.94 in 10.0 mi North 20.7 mph 26.5 mph N/A   Overcast
9:34 AM 36.5 °F 26.3 °F 32.9 °F 87% 29.93 in 10.0 mi North 18.4 mph 26.5 mph N/A   Overcast
9:54 AM 37.0 °F 27.0 °F 32.5 °F 84% 29.93 in 10.0 mi North 18.4 mph 31.1 mph N/A   Overcast
10:14 AM 37.4 °F 27.8 °F 32.4 °F 82% 29.93 in 10.0 mi North 17.3 mph 26.5 mph N/A   Overcast
10:34 AM 37.6 °F 28.1 °F 32.4 °F 81% 29.92 in 10.0 mi North 17.3 mph 29.9 mph N/A   Overcast
10:54 AM 37.6 °F 27.4 °F 32.2 °F 81% 29.92 in 10.0 mi North 19.6 mph 29.9 mph N/A   Overcast
11:14 AM 37.8 °F 28.3 °F 32.0 °F 80% 29.92 in 10.0 mi North 17.3 mph 27.6 mph N/A   Overcast
11:34 AM 37.9 °F 27.1 °F 32.0 °F 79% 29.92 in 10.0 mi North 23.0 mph 26.5 mph N/A   Overcast
11:54 AM 38.3 °F 27.8 °F 32.0 °F 78% 29.91 in 10.0 mi North 21.9 mph 29.9 mph N/A   Overcast
12:14 PM 38.3 °F 29.0 °F 32.2 °F 79% 29.90 in 10.0 mi North 17.3 mph 29.9 mph N/A   Overcast
12:34 PM 38.8 °F 29.1 °F 32.5 °F 78% 29.89 in 10.0 mi North 19.6 mph 26.5 mph N/A   Overcast
12:54 PM 39.0 °F 28.3 °F 32.9 °F 79% 29.90 in 10.0 mi North 24.2 mph 34.5 mph N/A   Overcast
1:14 PM 38.7 °F 28.3 °F 33.1 °F 80% 29.89 in 10.0 mi North 21.9 mph 28.8 mph N/A   Overcast
1:34 PM 38.7 °F 29.8 °F 33.4 °F 81% 29.88 in 7.0 mi North 16.1 mph 31.1 mph N/A   Overcast
2:34 PM 39.0 °F 30.3 °F 33.6 °F 81% 29.87 in 10.0 mi North 16.1 mph 26.5 mph N/A   Overcast
2:54 PM 39.2 °F 28.7 °F 33.8 °F 81% 29.85 in 10.0 mi North 23.0 mph 31.1 mph N/A   Overcast
3:15 PM 38.8 °F 29.1 °F 34.0 °F 83% 29.84 in 7.0 mi North 19.6 mph 32.2 mph N/A   Overcast
3:34 PM 38.7 °F 29.1 °F 34.3 °F 84% 29.84 in 5.0 mi North 18.4 mph 26.5 mph N/A   Overcast
3:54 PM 38.7 °F 30.1 °F 34.3 °F 84% 29.84 in 7.0 mi North 15.0 mph 32.2 mph N/A   Overcast
4:14 PM 38.7 °F 28.6 °F 34.2 °F 84% 29.83 in 10.0 mi North 20.7 mph 32.2 mph N/A   Overcast
4:34 PM 38.7 °F 28.3 °F 33.8 °F 83% 29.83 in 10.0 mi North 21.9 mph 33.4 mph N/A   Overcast
4:54 PM 38.3 °F 27.8 °F 33.8 °F 84% 29.82 in 7.0 mi NNW 21.9 mph 34.5 mph N/A   Overcast
5:14 PM 37.9 °F 27.1 °F 33.8 °F 85% 29.81 in - North 23.0 mph 31.1 mph N/A   Overcast
5:34 PM 37.8 °F 28.0 °F 33.8 °F 86% 29.80 in - North 18.4 mph 34.5 mph N/A   Overcast
5:54 PM 37.6 °F 27.1 °F 34.0 °F 87% 29.80 in 7.0 mi NNW 20.7 mph 31.1 mph N/A   Overcast
6:14 PM 37.4 °F 25.9 °F 33.8 °F 87% 29.79 in 10.0 mi North 25.3 mph 36.8 mph N/A   Overcast
6:34 PM 37.2 °F 25.9 °F 33.4 °F 86% 29.78 in 10.0 mi North 24.2 mph 32.2 mph N/A   Overcast
6:54 PM 37.0 °F 26.2 °F 33.4 °F 87% 29.78 in 10.0 mi North 21.9 mph 33.4 mph N/A   Overcast
7:14 PM 37.0 °F 26.2 °F 33.3 °F 86% 29.77 in 10.0 mi NNW 21.9 mph 31.1 mph N/A   Overcast
7:34 PM 37.0 °F 25.9 °F 33.3 °F 86% 29.77 in 10.0 mi North 23.0 mph 29.9 mph N/A   Overcast
7:54 PM 36.9 °F 26.2 °F 33.1 °F 86% 29.76 in 10.0 mi North 20.7 mph 31.1 mph N/A   Overcast
8:14 PM 36.7 °F 26.6 °F 33.1 °F 87% 29.75 in 10.0 mi North 18.4 mph 27.6 mph N/A   Overcast
8:34 PM 36.7 °F 26.0 °F 33.1 °F 87% 29.73 in 10.0 mi North 20.7 mph 29.9 mph N/A   Overcast
8:54 PM 36.7 °F 25.4 °F 32.9 °F 86% 29.72 in 10.0 mi North 23.0 mph 33.4 mph N/A   Overcast
9:14 PM 36.3 °F 24.7 °F 32.5 °F 86% 29.71 in 7.0 mi NNW 24.2 mph 34.5 mph N/A   Overcast
9:34 PM 36.0 °F 25.0 °F 32.5 °F 87% 29.70 in 10.0 mi NNW 20.7 mph 29.9 mph N/A   Overcast
9:54 PM 35.8 °F 23.9 °F 32.4 °F 87% 29.70 in 7.0 mi NNW 24.2 mph 31.1 mph N/A   Overcast
10:14 PM 35.4 °F 24.6 °F 32.2 °F 88% 29.68 in - NNW 19.6 mph 29.9 mph N/A   Overcast
10:34 PM 34.9 °F 22.2 °F 32.2 °F 90% 29.67 in - NNW 26.5 mph 33.4 mph N/A   Overcast
11:14 PM 34.7 °F 24.0 °F 32.2 °F 91% 29.65 in - NNW 18.4 mph 31.1 mph N/A   Overcast
11:34 PM 34.3 °F 23.2 °F 32.0 °F 91% 29.64 in - NNW 19.6 mph 32.2 mph N/A   Overcast
11:54 PM 34.5 °F 22.8 °F 32.0 °F 90% 29.62 in - NNW 21.9 mph 34.5 mph N/A   Overcast